Year,Month,Day,Hour,Minute,Value (Times are PST for temperature in C)
2016,06,26,00,00,14.70
2016,06,26,00,01,14.70
2016,06,26,00,02,14.70
2016,06,26,00,03,14.70
2016,06,26,00,04,14.60
2016,06,26,00,05,14.60
2016,06,26,00,06,14.60
2016,06,26,00,07,14.60
2016,06,26,00,08,14.60
2016,06,26,00,09,14.50
2016,06,26,00,10,14.50
2016,06,26,00,11,14.50
2016,06,26,00,12,14.40
2016,06,26,00,13,14.40
2016,06,26,00,14,14.40
2016,06,26,00,15,14.40
2016,06,26,00,16,14.40
2016,06,26,00,17,14.40
2016,06,26,00,18,14.30
2016,06,26,00,19,14.30
2016,06,26,00,20,14.30
2016,06,26,00,21,14.30
2016,06,26,00,22,14.30
2016,06,26,00,23,14.30
2016,06,26,00,24,14.30
2016,06,26,00,25,14.30
2016,06,26,00,26,14.20
2016,06,26,00,27,14.20
2016,06,26,00,28,14.20
2016,06,26,00,29,14.20
2016,06,26,00,30,14.20
2016,06,26,00,31,14.20
2016,06,26,00,32,14.20
2016,06,26,00,33,14.20
2016,06,26,00,34,14.20
2016,06,26,00,35,14.20
2016,06,26,00,36,14.20
2016,06,26,00,37,14.10
2016,06,26,00,38,14.10
2016,06,26,00,39,14.10
2016,06,26,00,40,14.00
2016,06,26,00,41,14.00
2016,06,26,00,42,13.90
2016,06,26,00,43,13.90
2016,06,26,00,44,13.80
2016,06,26,00,45,13.80
2016,06,26,00,46,13.80
2016,06,26,00,47,13.80
2016,06,26,00,48,13.70
2016,06,26,00,49,13.70
2016,06,26,00,50,13.70
2016,06,26,00,51,13.70
2016,06,26,00,52,13.70
2016,06,26,00,53,13.70
2016,06,26,00,54,13.70
2016,06,26,00,55,13.70
2016,06,26,00,56,13.70
2016,06,26,00,57,13.70
2016,06,26,00,58,13.70
2016,06,26,00,59,13.60
2016,06,26,01,00,13.60
2016,06,26,01,01,13.60
2016,06,26,01,02,13.60
2016,06,26,01,03,13.60
2016,06,26,01,04,13.60
2016,06,26,01,05,13.60
2016,06,26,01,06,13.60
2016,06,26,01,07,13.60
2016,06,26,01,08,13.70
2016,06,26,01,09,13.70
2016,06,26,01,10,13.70
2016,06,26,01,11,13.70
2016,06,26,01,12,13.70
2016,06,26,01,13,13.70
2016,06,26,01,14,13.70
2016,06,26,01,15,13.70
2016,06,26,01,16,13.70
2016,06,26,01,17,13.70
2016,06,26,01,18,13.70
2016,06,26,01,19,13.70
2016,06,26,01,20,13.60
2016,06,26,01,21,13.60
2016,06,26,01,22,13.60
2016,06,26,01,23,13.60
2016,06,26,01,24,13.60
2016,06,26,01,25,13.60
2016,06,26,01,26,13.60
2016,06,26,01,27,13.50
2016,06,26,01,28,13.50
2016,06,26,01,29,13.40
2016,06,26,01,30,13.40
2016,06,26,01,31,13.40
2016,06,26,01,32,13.40
2016,06,26,01,33,13.30
2016,06,26,01,34,13.30
2016,06,26,01,35,13.30
2016,06,26,01,36,13.30
2016,06,26,01,37,13.30
2016,06,26,01,38,13.30
2016,06,26,01,39,13.20
2016,06,26,01,40,13.20
2016,06,26,01,41,13.20
2016,06,26,01,42,13.20
2016,06,26,01,43,13.20
2016,06,26,01,44,13.20
2016,06,26,01,45,13.10
2016,06,26,01,46,13.10
2016,06,26,01,47,13.10
2016,06,26,01,48,13.10
2016,06,26,01,49,13.10
2016,06,26,01,50,13.20
2016,06,26,01,51,13.20
2016,06,26,01,52,13.10
2016,06,26,01,53,13.10
2016,06,26,01,54,13.10
2016,06,26,01,55,13.10
2016,06,26,01,56,13.10
2016,06,26,01,57,13.00
2016,06,26,01,58,13.00
2016,06,26,01,59,13.00
2016,06,26,02,00,12.90
2016,06,26,02,01,12.90
2016,06,26,02,02,12.90
2016,06,26,02,03,12.90
2016,06,26,02,04,12.80
2016,06,26,02,05,12.80
2016,06,26,02,06,12.80
2016,06,26,02,07,12.80
2016,06,26,02,08,12.70
2016,06,26,02,09,12.70
2016,06,26,02,10,12.70
2016,06,26,02,11,12.70
2016,06,26,02,12,12.70
2016,06,26,02,13,12.70
2016,06,26,02,14,12.70
2016,06,26,02,15,12.70
2016,06,26,02,16,12.70
2016,06,26,02,17,12.70
2016,06,26,02,18,12.70
2016,06,26,02,19,12.60
2016,06,26,02,20,12.60
2016,06,26,02,21,12.60
2016,06,26,02,22,12.60
2016,06,26,02,23,12.60
2016,06,26,02,24,12.60
2016,06,26,02,25,12.60
2016,06,26,02,26,12.60
2016,06,26,02,27,12.60
2016,06,26,02,28,12.60
2016,06,26,02,29,12.60
2016,06,26,02,30,12.60
2016,06,26,02,31,12.60
2016,06,26,02,32,12.60
2016,06,26,02,33,12.60
2016,06,26,02,34,12.60
2016,06,26,02,35,12.60
2016,06,26,02,36,12.50
2016,06,26,02,37,12.50
2016,06,26,02,38,12.50
2016,06,26,02,39,12.40
2016,06,26,02,40,12.40
2016,06,26,02,41,12.40
2016,06,26,02,42,12.40
2016,06,26,02,43,12.40
2016,06,26,02,44,12.40
2016,06,26,02,45,12.40
2016,06,26,02,46,12.40
2016,06,26,02,47,12.40
2016,06,26,02,48,12.30
2016,06,26,02,49,12.30
2016,06,26,02,50,12.30
2016,06,26,02,51,12.30
2016,06,26,02,52,12.30
2016,06,26,02,53,12.30
2016,06,26,02,54,12.30
2016,06,26,02,55,12.30
2016,06,26,02,56,12.30
2016,06,26,02,57,12.30
2016,06,26,02,58,12.20
2016,06,26,02,59,12.20
2016,06,26,03,00,12.20
2016,06,26,03,01,12.20
2016,06,26,03,02,12.20
2016,06,26,03,03,12.20
2016,06,26,03,04,12.20
2016,06,26,03,05,12.20
2016,06,26,03,06,12.20
2016,06,26,03,07,12.20
2016,06,26,03,08,12.20
2016,06,26,03,09,12.20
2016,06,26,03,10,12.20
2016,06,26,03,11,12.20
2016,06,26,03,12,12.10
2016,06,26,03,13,12.10
2016,06,26,03,14,12.10
2016,06,26,03,15,12.10
2016,06,26,03,16,12.10
2016,06,26,03,17,12.10
2016,06,26,03,18,12.10
2016,06,26,03,19,12.10
2016,06,26,03,20,12.00
2016,06,26,03,21,12.00
2016,06,26,03,22,12.00
2016,06,26,03,23,12.00
2016,06,26,03,24,12.00
2016,06,26,03,25,12.00
2016,06,26,03,26,11.90
2016,06,26,03,27,11.90
2016,06,26,03,28,11.90
2016,06,26,03,29,11.90
2016,06,26,03,30,11.90
2016,06,26,03,31,11.90
2016,06,26,03,32,11.90
2016,06,26,03,33,11.80
2016,06,26,03,34,11.80
2016,06,26,03,35,11.80
2016,06,26,03,36,11.80
2016,06,26,03,37,11.80
2016,06,26,03,38,11.80
2016,06,26,03,39,11.80
2016,06,26,03,40,11.80
2016,06,26,03,41,11.80
2016,06,26,03,42,11.80
2016,06,26,03,43,11.80
2016,06,26,03,44,11.80
2016,06,26,03,45,11.80
2016,06,26,03,46,11.80
2016,06,26,03,47,11.80
2016,06,26,03,48,11.80
2016,06,26,03,49,11.80
2016,06,26,03,50,11.80
2016,06,26,03,51,11.80
2016,06,26,03,52,11.80
2016,06,26,03,53,11.80
2016,06,26,03,54,11.80
2016,06,26,03,55,11.80
2016,06,26,03,56,11.80
2016,06,26,03,57,11.80
2016,06,26,03,58,11.80
2016,06,26,03,59,11.80
2016,06,26,04,00,11.80
2016,06,26,04,01,11.80
2016,06,26,04,02,11.80
2016,06,26,04,03,11.80
2016,06,26,04,04,11.80
2016,06,26,04,05,11.80
2016,06,26,04,06,11.70
2016,06,26,04,07,11.70
2016,06,26,04,08,11.70
2016,06,26,04,09,11.70
2016,06,26,04,10,11.70
2016,06,26,04,11,11.60
2016,06,26,04,12,11.60
2016,06,26,04,13,11.60
2016,06,26,04,14,11.60
2016,06,26,04,15,11.60
2016,06,26,04,16,11.60
2016,06,26,04,17,11.60
2016,06,26,04,18,11.50
2016,06,26,04,19,11.50
2016,06,26,04,20,11.50
2016,06,26,04,21,11.50
2016,06,26,04,22,11.50
2016,06,26,04,23,11.50
2016,06,26,04,24,11.50
2016,06,26,04,25,11.40
2016,06,26,04,26,11.40
2016,06,26,04,27,11.40
2016,06,26,04,28,11.40
2016,06,26,04,29,11.40
2016,06,26,04,30,11.40
2016,06,26,04,31,11.40
2016,06,26,04,32,11.40
2016,06,26,04,33,11.40
2016,06,26,04,34,11.40
2016,06,26,04,35,11.30
2016,06,26,04,36,11.30
2016,06,26,04,37,11.30
2016,06,26,04,38,11.30
2016,06,26,04,39,11.30
2016,06,26,04,40,11.30
2016,06,26,04,41,11.30
2016,06,26,04,42,11.30
2016,06,26,04,43,11.30
2016,06,26,04,44,11.30
2016,06,26,04,45,11.30
2016,06,26,04,46,11.30
2016,06,26,04,47,11.30
2016,06,26,04,48,11.30
2016,06,26,04,49,11.30
2016,06,26,04,50,11.30
2016,06,26,04,51,11.20
2016,06,26,04,52,11.20
2016,06,26,04,53,11.20
2016,06,26,04,54,11.20
2016,06,26,04,55,11.20
2016,06,26,04,56,11.20
2016,06,26,04,57,11.20
2016,06,26,04,58,11.20
2016,06,26,04,59,11.20
2016,06,26,05,00,11.20
2016,06,26,05,01,11.20
2016,06,26,05,02,11.20
2016,06,26,05,03,11.20
2016,06,26,05,04,11.20
2016,06,26,05,05,11.20
2016,06,26,05,06,11.20
2016,06,26,05,07,11.20
2016,06,26,05,08,11.20
2016,06,26,05,09,11.20
2016,06,26,05,10,11.20
2016,06,26,05,11,11.20
2016,06,26,05,12,11.20
2016,06,26,05,13,11.20
2016,06,26,05,14,11.20
2016,06,26,05,15,11.20
2016,06,26,05,16,11.20
2016,06,26,05,17,11.20
2016,06,26,05,18,11.20
2016,06,26,05,19,11.20
2016,06,26,05,20,11.20
2016,06,26,05,21,11.20
2016,06,26,05,22,11.20
2016,06,26,05,23,11.20
2016,06,26,05,24,11.20
2016,06,26,05,25,11.20
2016,06,26,05,26,11.20
2016,06,26,05,27,11.10
2016,06,26,05,28,11.10
2016,06,26,05,29,11.10
2016,06,26,05,30,11.10
2016,06,26,05,31,11.10
2016,06,26,05,32,11.10
2016,06,26,05,33,11.10
2016,06,26,05,34,11.10
2016,06,26,05,35,11.10
2016,06,26,05,36,11.10
2016,06,26,05,37,11.10
2016,06,26,05,38,11.00
2016,06,26,05,39,11.00
2016,06,26,05,40,11.00
2016,06,26,05,41,11.00
2016,06,26,05,42,11.00
2016,06,26,05,43,11.00
2016,06,26,05,44,10.90
2016,06,26,05,45,10.90
2016,06,26,05,46,10.90
2016,06,26,05,47,10.90
2016,06,26,05,48,10.90
2016,06,26,05,49,10.90
2016,06,26,05,50,10.90
2016,06,26,05,51,10.90
2016,06,26,05,52,10.90
2016,06,26,05,53,10.90
2016,06,26,05,54,10.90
2016,06,26,05,55,10.90
2016,06,26,05,56,10.90
2016,06,26,05,57,10.90
2016,06,26,05,58,11.00
2016,06,26,05,59,11.00
2016,06,26,06,00,11.00
2016,06,26,06,01,11.00
2016,06,26,06,02,11.10
2016,06,26,06,03,11.10
2016,06,26,06,04,11.10
2016,06,26,06,05,11.20
2016,06,26,06,06,11.20
2016,06,26,06,07,11.20
2016,06,26,06,08,11.30
2016,06,26,06,09,11.30
2016,06,26,06,10,11.30
2016,06,26,06,11,11.40
2016,06,26,06,12,11.40
2016,06,26,06,13,11.40
2016,06,26,06,14,11.50
2016,06,26,06,15,11.60
2016,06,26,06,16,11.60
2016,06,26,06,17,11.70
2016,06,26,06,18,11.70
2016,06,26,06,19,11.70
2016,06,26,06,20,11.70
2016,06,26,06,21,11.80
2016,06,26,06,22,11.80
2016,06,26,06,23,11.80
2016,06,26,06,24,11.90
2016,06,26,06,25,11.90
2016,06,26,06,26,12.00
2016,06,26,06,27,12.00
2016,06,26,06,28,12.10
2016,06,26,06,29,12.10
2016,06,26,06,30,12.20
2016,06,26,06,31,12.20
2016,06,26,06,32,12.30
2016,06,26,06,33,12.30
2016,06,26,06,34,12.30
2016,06,26,06,35,12.40
2016,06,26,06,36,12.50
2016,06,26,06,37,12.60
2016,06,26,06,38,12.70
2016,06,26,06,39,12.70
2016,06,26,06,40,12.80
2016,06,26,06,41,12.90
2016,06,26,06,42,12.90
2016,06,26,06,43,13.00
2016,06,26,06,44,13.10
2016,06,26,06,45,13.20
2016,06,26,06,46,13.20
2016,06,26,06,47,13.30
2016,06,26,06,48,13.30
2016,06,26,06,49,13.30
2016,06,26,06,50,13.30
2016,06,26,06,51,13.30
2016,06,26,06,52,13.30
2016,06,26,06,53,13.30
2016,06,26,06,54,13.30
2016,06,26,06,55,13.30
2016,06,26,06,56,13.30
2016,06,26,06,57,13.30
2016,06,26,06,58,13.30
2016,06,26,06,59,13.30
2016,06,26,07,00,13.30
2016,06,26,07,01,13.30
2016,06,26,07,02,13.30
2016,06,26,07,03,13.30
2016,06,26,07,04,13.40
2016,06,26,07,05,13.40
2016,06,26,07,06,13.40
2016,06,26,07,07,13.50
2016,06,26,07,08,13.60
2016,06,26,07,09,13.60
2016,06,26,07,10,13.60
2016,06,26,07,11,13.60
2016,06,26,07,12,13.70
2016,06,26,07,13,13.70
2016,06,26,07,14,13.70
2016,06,26,07,15,13.70
2016,06,26,07,16,13.70
2016,06,26,07,17,13.70
2016,06,26,07,18,13.80
2016,06,26,07,19,13.80
2016,06,26,07,20,13.80
2016,06,26,07,21,13.80
2016,06,26,07,22,13.80
2016,06,26,07,23,13.80
2016,06,26,07,24,13.90
2016,06,26,07,25,13.90
2016,06,26,07,26,13.90
2016,06,26,07,27,13.90
2016,06,26,07,28,13.90
2016,06,26,07,29,14.00
2016,06,26,07,30,14.00
2016,06,26,07,31,13.90
2016,06,26,07,32,13.90
2016,06,26,07,33,14.00
2016,06,26,07,34,14.00
2016,06,26,07,35,14.00
2016,06,26,07,36,14.10
2016,06,26,07,37,14.10
2016,06,26,07,38,14.10
2016,06,26,07,39,14.20
2016,06,26,07,40,14.20
2016,06,26,07,41,14.30
2016,06,26,07,42,14.30
2016,06,26,07,43,14.30
2016,06,26,07,44,14.40
2016,06,26,07,45,14.50
2016,06,26,07,46,14.60
2016,06,26,07,47,14.70
2016,06,26,07,48,14.80
2016,06,26,07,49,14.80
2016,06,26,07,50,14.90
2016,06,26,07,51,15.00
2016,06,26,07,52,15.10
2016,06,26,07,53,15.20
2016,06,26,07,54,15.20
2016,06,26,07,55,15.30
2016,06,26,07,56,15.40
2016,06,26,07,57,15.60
2016,06,26,07,58,15.60
2016,06,26,07,59,15.70
2016,06,26,08,00,15.70
2016,06,26,08,01,15.80
2016,06,26,08,02,15.80
2016,06,26,08,03,15.90
2016,06,26,08,04,15.90
2016,06,26,08,05,16.00
2016,06,26,08,06,16.10
2016,06,26,08,07,16.10
2016,06,26,08,08,16.10
2016,06,26,08,09,16.20
2016,06,26,08,10,16.20
2016,06,26,08,11,16.20
2016,06,26,08,12,16.20
2016,06,26,08,13,16.20
2016,06,26,08,14,16.20
2016,06,26,08,15,16.20
2016,06,26,08,16,16.20
2016,06,26,08,17,16.20
2016,06,26,08,18,16.20
2016,06,26,08,19,16.10
2016,06,26,08,20,16.10
2016,06,26,08,21,16.10
2016,06,26,08,22,16.20
2016,06,26,08,23,16.20
2016,06,26,08,24,16.20
2016,06,26,08,25,16.20
2016,06,26,08,26,16.30
2016,06,26,08,27,16.30
2016,06,26,08,28,16.30
2016,06,26,08,29,16.30
2016,06,26,08,30,16.30
2016,06,26,08,31,16.30
2016,06,26,08,32,16.30
2016,06,26,08,33,16.30
2016,06,26,08,34,16.30
2016,06,26,08,35,16.30
2016,06,26,08,36,16.30
2016,06,26,08,37,16.30
2016,06,26,08,38,16.30
2016,06,26,08,39,16.30
2016,06,26,08,40,16.30
2016,06,26,08,41,16.30
2016,06,26,08,42,16.30
2016,06,26,08,43,16.40
2016,06,26,08,44,16.40
2016,06,26,08,45,16.50
2016,06,26,08,46,16.60
2016,06,26,08,47,16.60
2016,06,26,08,48,16.70
2016,06,26,08,49,16.80
2016,06,26,08,50,16.80
2016,06,26,08,51,16.90
2016,06,26,08,52,17.00
2016,06,26,08,53,17.10
2016,06,26,08,54,17.10
2016,06,26,08,55,17.20
2016,06,26,08,56,17.30
2016,06,26,08,57,17.30
2016,06,26,08,58,17.40
2016,06,26,08,59,17.40
2016,06,26,09,00,17.60
2016,06,26,09,01,17.60
2016,06,26,09,02,17.60
2016,06,26,09,03,17.60
2016,06,26,09,04,17.70
2016,06,26,09,05,17.70
2016,06,26,09,06,17.70
2016,06,26,09,07,17.80
2016,06,26,09,08,17.80
2016,06,26,09,09,17.90
2016,06,26,09,10,18.00
2016,06,26,09,11,18.10
2016,06,26,09,12,18.20
2016,06,26,09,13,18.20
2016,06,26,09,14,18.30
2016,06,26,09,15,18.30
2016,06,26,09,16,18.40
2016,06,26,09,17,18.40
2016,06,26,09,18,18.50
2016,06,26,09,19,18.60
2016,06,26,09,20,18.60
2016,06,26,09,21,18.60
2016,06,26,09,22,18.60
2016,06,26,09,23,18.60
2016,06,26,09,24,18.60
2016,06,26,09,25,18.70
2016,06,26,09,26,18.70
2016,06,26,09,27,18.80
2016,06,26,09,28,18.80
2016,06,26,09,29,18.80
2016,06,26,09,30,18.80
2016,06,26,09,31,18.80
2016,06,26,09,32,18.80
2016,06,26,09,33,18.80
2016,06,26,09,34,18.80
2016,06,26,09,35,18.80
2016,06,26,09,36,18.90
2016,06,26,09,37,18.90
2016,06,26,09,38,19.00
2016,06,26,09,39,19.10
2016,06,26,09,40,19.10
2016,06,26,09,41,19.10
2016,06,26,09,42,19.10
2016,06,26,09,43,19.10
2016,06,26,09,44,19.10
2016,06,26,09,45,19.10
2016,06,26,09,46,19.10
2016,06,26,09,47,19.20
2016,06,26,09,48,19.20
2016,06,26,09,49,19.20
2016,06,26,09,50,19.20
2016,06,26,09,51,19.20
2016,06,26,09,52,19.20
2016,06,26,09,53,19.20
2016,06,26,09,54,19.20
2016,06,26,09,55,19.20
2016,06,26,09,56,19.20
2016,06,26,09,57,19.20
2016,06,26,09,58,19.30
2016,06,26,09,59,19.30
2016,06,26,10,00,19.30
2016,06,26,10,01,19.40
2016,06,26,10,02,19.50
2016,06,26,10,03,19.60
2016,06,26,10,04,19.50
2016,06,26,10,05,19.50
2016,06,26,10,06,19.40
2016,06,26,10,07,19.40
2016,06,26,10,08,19.40
2016,06,26,10,09,19.40
2016,06,26,10,10,19.40
2016,06,26,10,11,19.40
2016,06,26,10,12,19.40
2016,06,26,10,13,19.50
2016,06,26,10,14,19.60
2016,06,26,10,15,19.70
2016,06,26,10,16,19.80
2016,06,26,10,17,19.80
2016,06,26,10,18,19.90
2016,06,26,10,19,19.90
2016,06,26,10,20,20.10
2016,06,26,10,21,20.20
2016,06,26,10,22,20.20
2016,06,26,10,23,20.30
2016,06,26,10,24,20.30
2016,06,26,10,25,20.30
2016,06,26,10,26,20.30
2016,06,26,10,27,20.30
2016,06,26,10,28,20.40
2016,06,26,10,29,20.40
2016,06,26,10,30,20.30
2016,06,26,10,31,20.40
2016,06,26,10,32,20.40
2016,06,26,10,33,20.50
2016,06,26,10,34,20.50
2016,06,26,10,35,20.60
2016,06,26,10,36,20.60
2016,06,26,10,37,20.70
2016,06,26,10,38,20.80
2016,06,26,10,39,20.90
2016,06,26,10,40,21.10
2016,06,26,10,41,21.20
2016,06,26,10,42,21.20
2016,06,26,10,43,21.20
2016,06,26,10,44,21.20
2016,06,26,10,45,21.20
2016,06,26,10,46,21.10
2016,06,26,10,47,21.00
2016,06,26,10,48,20.90
2016,06,26,10,49,20.90
2016,06,26,10,50,20.90
2016,06,26,10,51,21.10
2016,06,26,10,52,21.20
2016,06,26,10,53,21.30
2016,06,26,10,54,21.30
2016,06,26,10,55,21.40
2016,06,26,10,56,21.50
2016,06,26,10,57,21.60
2016,06,26,10,58,21.60
2016,06,26,10,59,21.70
2016,06,26,11,00,21.70
2016,06,26,11,01,21.70
2016,06,26,11,02,21.80
2016,06,26,11,03,21.90
2016,06,26,11,04,21.90
2016,06,26,11,05,21.90
2016,06,26,11,06,21.80
2016,06,26,11,07,21.80
2016,06,26,11,08,21.80
2016,06,26,11,09,21.80
2016,06,26,11,10,21.90
2016,06,26,11,11,21.90
2016,06,26,11,12,21.90
2016,06,26,11,13,22.10
2016,06,26,11,14,22.20
2016,06,26,11,15,22.20
2016,06,26,11,16,22.20
2016,06,26,11,17,22.20
2016,06,26,11,18,22.30
2016,06,26,11,19,22.30
2016,06,26,11,20,22.30
2016,06,26,11,21,22.30
2016,06,26,11,22,22.20
2016,06,26,11,23,22.10
2016,06,26,11,24,22.10
2016,06,26,11,25,22.00
2016,06,26,11,26,22.10
2016,06,26,11,27,22.20
2016,06,26,11,28,22.20
2016,06,26,11,29,22.30
2016,06,26,11,30,22.40
2016,06,26,11,31,22.40
2016,06,26,11,32,22.60
2016,06,26,11,33,22.60
2016,06,26,11,34,22.70
2016,06,26,11,35,22.70
2016,06,26,11,36,22.70
2016,06,26,11,37,22.80
2016,06,26,11,38,22.80
2016,06,26,11,39,22.80
2016,06,26,11,40,22.90
2016,06,26,11,41,22.90
2016,06,26,11,42,22.80
2016,06,26,11,43,22.70
2016,06,26,11,44,22.60
2016,06,26,11,45,22.60
2016,06,26,11,46,22.70
2016,06,26,11,47,22.70
2016,06,26,11,48,22.80
2016,06,26,11,49,22.80
2016,06,26,11,50,22.90
2016,06,26,11,51,22.90
2016,06,26,11,52,23.10
2016,06,26,11,53,23.20
2016,06,26,11,54,23.20
2016,06,26,11,55,23.30
2016,06,26,11,56,23.30
2016,06,26,11,57,23.40
2016,06,26,11,58,23.40
2016,06,26,11,59,23.30
2016,06,26,12,00,23.30
2016,06,26,12,01,23.30
2016,06,26,12,02,23.20
2016,06,26,12,03,23.20
2016,06,26,12,04,23.30
2016,06,26,12,05,23.30
2016,06,26,12,06,23.40
2016,06,26,12,07,23.60
2016,06,26,12,08,23.70
2016,06,26,12,09,23.90
2016,06,26,12,10,24.10
2016,06,26,12,11,24.20
2016,06,26,12,12,24.30
2016,06,26,12,13,24.40
2016,06,26,12,14,24.50
2016,06,26,12,15,24.60
2016,06,26,12,16,24.70
2016,06,26,12,17,24.70
2016,06,26,12,18,24.70
2016,06,26,12,19,24.80
2016,06,26,12,20,24.80
2016,06,26,12,21,24.90
2016,06,26,12,22,24.90
2016,06,26,12,23,25.00
2016,06,26,12,24,24.90
2016,06,26,12,25,24.80
2016,06,26,12,26,24.80
2016,06,26,12,27,24.70
2016,06,26,12,28,24.70
2016,06,26,12,29,24.60
2016,06,26,12,30,24.60
2016,06,26,12,31,24.60
2016,06,26,12,32,24.70
2016,06,26,12,33,24.70
2016,06,26,12,34,24.80
2016,06,26,12,35,24.90
2016,06,26,12,36,24.90
2016,06,26,12,37,24.80
2016,06,26,12,38,24.70
2016,06,26,12,39,24.70
2016,06,26,12,40,24.60
2016,06,26,12,41,24.60
2016,06,26,12,42,24.60
2016,06,26,12,43,24.70
2016,06,26,12,44,24.80
2016,06,26,12,45,24.90
2016,06,26,12,46,25.00
2016,06,26,12,47,25.10
2016,06,26,12,48,25.20
2016,06,26,12,49,25.20
2016,06,26,12,50,25.20
2016,06,26,12,51,25.30
2016,06,26,12,52,25.40
2016,06,26,12,53,25.50
2016,06,26,12,54,25.60
2016,06,26,12,55,25.70
2016,06,26,12,56,25.70
2016,06,26,12,57,25.70
2016,06,26,12,58,25.70
2016,06,26,12,59,25.70
2016,06,26,13,00,25.70
2016,06,26,13,01,25.70
2016,06,26,13,02,25.60
2016,06,26,13,03,25.60
2016,06,26,13,04,25.50
2016,06,26,13,05,25.40
2016,06,26,13,06,25.40
2016,06,26,13,07,25.40
2016,06,26,13,08,25.40
2016,06,26,13,09,25.60
2016,06,26,13,10,25.70
2016,06,26,13,11,25.70
2016,06,26,13,12,25.70
2016,06,26,13,13,25.70
2016,06,26,13,14,25.80
2016,06,26,13,15,25.80
2016,06,26,13,16,25.80
2016,06,26,13,17,25.70
2016,06,26,13,18,25.70
2016,06,26,13,19,25.70
2016,06,26,13,20,25.70
2016,06,26,13,21,25.80
2016,06,26,13,22,25.80
2016,06,26,13,23,25.80
2016,06,26,13,24,25.80
2016,06,26,13,25,25.80
2016,06,26,13,26,25.80
2016,06,26,13,27,25.80
2016,06,26,13,28,25.90
2016,06,26,13,29,26.00
2016,06,26,13,30,26.20
2016,06,26,13,31,26.30
2016,06,26,13,32,26.30
2016,06,26,13,33,26.40
2016,06,26,13,34,26.30
2016,06,26,13,35,26.20
2016,06,26,13,36,26.20
2016,06,26,13,37,26.10
2016,06,26,13,38,26.10
2016,06,26,13,39,26.20
2016,06,26,13,40,26.20
2016,06,26,13,41,26.10
2016,06,26,13,42,26.10
2016,06,26,13,43,26.10
2016,06,26,13,44,26.20
2016,06,26,13,45,26.30
2016,06,26,13,46,26.40
2016,06,26,13,47,26.40
2016,06,26,13,48,26.40
2016,06,26,13,49,26.40
2016,06,26,13,50,26.40
2016,06,26,13,51,26.40
2016,06,26,13,52,26.40
2016,06,26,13,53,26.40
2016,06,26,13,54,26.40
2016,06,26,13,55,26.30
2016,06,26,13,56,26.30
2016,06,26,13,57,26.30
2016,06,26,13,58,26.40
2016,06,26,13,59,26.60
2016,06,26,14,00,26.60
2016,06,26,14,01,26.70
2016,06,26,14,02,26.80
2016,06,26,14,03,26.90
2016,06,26,14,04,27.00
2016,06,26,14,05,27.10
2016,06,26,14,06,27.00
2016,06,26,14,07,27.00
2016,06,26,14,08,27.00
2016,06,26,14,09,27.10
2016,06,26,14,10,27.20
2016,06,26,14,11,27.20
2016,06,26,14,12,27.30
2016,06,26,14,13,27.40
2016,06,26,14,14,27.60
2016,06,26,14,15,27.70
2016,06,26,14,16,27.70
2016,06,26,14,17,27.70
2016,06,26,14,18,27.70
2016,06,26,14,19,27.70
2016,06,26,14,20,27.70
2016,06,26,14,21,27.80
2016,06,26,14,22,27.70
2016,06,26,14,23,27.70
2016,06,26,14,24,27.70
2016,06,26,14,25,27.60
2016,06,26,14,26,27.50
2016,06,26,14,27,27.50
2016,06,26,14,28,27.50
2016,06,26,14,29,27.60
2016,06,26,14,30,27.60
2016,06,26,14,31,27.50
2016,06,26,14,32,27.40
2016,06,26,14,33,27.20
2016,06,26,14,34,27.10
2016,06,26,14,35,27.10
2016,06,26,14,36,27.10
2016,06,26,14,37,27.10
2016,06,26,14,38,27.10
2016,06,26,14,39,27.20
2016,06,26,14,40,27.20
2016,06,26,14,41,27.30
2016,06,26,14,42,27.40
2016,06,26,14,43,27.60
2016,06,26,14,44,27.80
2016,06,26,14,45,27.90
2016,06,26,14,46,28.10
2016,06,26,14,47,28.10
2016,06,26,14,48,28.20
2016,06,26,14,49,28.20
2016,06,26,14,50,28.20
2016,06,26,14,51,28.20
2016,06,26,14,52,28.20
2016,06,26,14,53,28.20
2016,06,26,14,54,28.20
2016,06,26,14,55,28.30
2016,06,26,14,56,28.30
2016,06,26,14,57,28.40
2016,06,26,14,58,28.60
2016,06,26,14,59,28.70
2016,06,26,15,00,28.80
2016,06,26,15,01,28.70
2016,06,26,15,02,28.70
2016,06,26,15,03,28.60
2016,06,26,15,04,28.60
2016,06,26,15,05,28.70
2016,06,26,15,06,28.70
2016,06,26,15,07,28.70
2016,06,26,15,08,28.70
2016,06,26,15,09,28.70
2016,06,26,15,10,28.70
2016,06,26,15,11,28.80
2016,06,26,15,12,28.80
2016,06,26,15,13,28.80
2016,06,26,15,14,28.80
2016,06,26,15,15,28.80
2016,06,26,15,16,28.80
2016,06,26,15,17,28.80
2016,06,26,15,18,28.80
2016,06,26,15,19,28.80
2016,06,26,15,20,28.80
2016,06,26,15,21,28.90
2016,06,26,15,22,29.00
2016,06,26,15,23,28.90
2016,06,26,15,24,28.80
2016,06,26,15,25,28.80
2016,06,26,15,26,28.70
2016,06,26,15,27,28.80
2016,06,26,15,28,28.80
2016,06,26,15,29,28.80
2016,06,26,15,30,28.90
2016,06,26,15,31,29.10
2016,06,26,15,32,29.20
2016,06,26,15,33,29.20
2016,06,26,15,34,29.10
2016,06,26,15,35,29.10
2016,06,26,15,36,29.10
2016,06,26,15,37,29.10
2016,06,26,15,38,29.20
2016,06,26,15,39,29.30
2016,06,26,15,40,29.30
2016,06,26,15,41,29.40
2016,06,26,15,42,29.40
2016,06,26,15,43,29.50
2016,06,26,15,44,29.60
2016,06,26,15,45,29.60
2016,06,26,15,46,29.60
2016,06,26,15,47,29.60
2016,06,26,15,48,29.50
2016,06,26,15,49,29.40
2016,06,26,15,50,29.40
2016,06,26,15,51,29.30
2016,06,26,15,52,29.40
2016,06,26,15,53,29.40
2016,06,26,15,54,29.40
2016,06,26,15,55,29.50
2016,06,26,15,56,29.60
2016,06,26,15,57,29.60
2016,06,26,15,58,29.60
2016,06,26,15,59,29.60
2016,06,26,16,00,29.60
2016,06,26,16,01,29.60
2016,06,26,16,02,29.70
2016,06,26,16,03,29.70
2016,06,26,16,04,29.80
2016,06,26,16,05,29.90
2016,06,26,16,06,30.00
2016,06,26,16,07,30.10
2016,06,26,16,08,30.10
2016,06,26,16,09,30.20
2016,06,26,16,10,30.20
2016,06,26,16,11,30.10
2016,06,26,16,12,30.10
2016,06,26,16,13,30.00
2016,06,26,16,14,29.80
2016,06,26,16,15,29.80
2016,06,26,16,16,29.70
2016,06,26,16,17,29.70
2016,06,26,16,18,29.70
2016,06,26,16,19,29.70
2016,06,26,16,20,29.70
2016,06,26,16,21,29.60
2016,06,26,16,22,29.60
2016,06,26,16,23,29.50
2016,06,26,16,24,29.40
2016,06,26,16,25,29.40
2016,06,26,16,26,29.30
2016,06,26,16,27,29.30
2016,06,26,16,28,29.20
2016,06,26,16,29,29.20
2016,06,26,16,30,29.10
2016,06,26,16,31,29.10
2016,06,26,16,32,29.20
2016,06,26,16,33,29.20
2016,06,26,16,34,29.20
2016,06,26,16,35,29.20
2016,06,26,16,36,29.20
2016,06,26,16,37,29.20
2016,06,26,16,38,29.30
2016,06,26,16,39,29.30
2016,06,26,16,40,29.30
2016,06,26,16,41,29.30
2016,06,26,16,42,29.30
2016,06,26,16,43,29.40
2016,06,26,16,44,29.50
2016,06,26,16,45,29.60
2016,06,26,16,46,29.60
2016,06,26,16,47,29.60
2016,06,26,16,48,29.70
2016,06,26,16,49,29.70
2016,06,26,16,50,29.80
2016,06,26,16,51,29.80
2016,06,26,16,52,29.80
2016,06,26,16,53,29.80
2016,06,26,16,54,29.80
2016,06,26,16,55,29.70
2016,06,26,16,56,29.60
2016,06,26,16,57,29.40
2016,06,26,16,58,29.40
2016,06,26,16,59,29.30
2016,06,26,17,00,29.20
2016,06,26,17,01,29.10
2016,06,26,17,02,28.90
2016,06,26,17,03,28.70
2016,06,26,17,04,28.50
2016,06,26,17,05,28.30
2016,06,26,17,06,28.20
2016,06,26,17,07,28.10
2016,06,26,17,08,28.00
2016,06,26,17,09,27.90
2016,06,26,17,10,27.90
2016,06,26,17,11,27.90
2016,06,26,17,12,27.90
2016,06,26,17,13,27.90
2016,06,26,17,14,27.80
2016,06,26,17,15,27.80
2016,06,26,17,16,27.70
2016,06,26,17,17,27.70
2016,06,26,17,18,27.60
2016,06,26,17,19,27.30